Location: Omaha
(41.2590°N, 95.9380°W)
Time: 13:30:45
(UTC-05:00)

Tiangong 2 - Pass Details

Date: 11 October 2017
Orbit: 388 x 392 km, 42.8° (Epoch: 18 October)

Event Time Altitude Azimuth Distance (km) Brightness Sun altitude
Exits shadow 05:11:07 19° 98° (E) 1,014 3.9 -27.0°
Drops below altitude 10° 05:12:16 10° 86° (E) 1,421 4.9 -26.8°
Sets 05:14:26 0° 78° (ENE) 2,280 6.3 -26.4°
